Location: Campillo
(40.8621°N, 4.2488°W)
Time: 12:36:09
(UTC+00:00)

Cosmos 1666 - Pass Details

Date: 11 May 2021
Orbit: 495 x 519 km, 82.5° (Epoch: 13 June)

Event Time Altitude Azimuth Distance (km) Brightness Sun altitude
Rises 20:54:51 0° 8° (N) 2,594 6.8 -15.2°
Reaches altitude 10° 20:57:26 10° 26° (NNE) 1,703 5.5 -15.6°
Maximum altitude 21:00:11 19° 74° (ENE) 1,222 4.3 -16.0°
Enters shadow 21:00:27 19° 80° (E) 1,227 4.2 -16.0°
